Weather History for Casa Grande, AZ

Change the Weather History Date:

Wednesday, August 14, 2013

  Actual Average Record
Temperature  
Mean Temperature 92 °F -  
Max Temperature 105 °F 99 °F 109 °F (2012)
Min Temperature 78 °F 75 °F 66 °F (1998)
Cooling Degree Days 26    
Growing Degree Days 42 (Base 50)    
Moisture  
Dew Point 49 °F    
Average Humidity 26    
Maximum Humidity 57    
Minimum Humidity 13    
Precipitation  
Precipitation 0.01 in - - ()
Sea Level Pressure  
Sea Level Pressure 29.88 in    
Wind  
Wind Speed 3 mph (WNW)    
Max Wind Speed 17 mph    
Max Gust Speed 24 mph    
Visibility 10 miles    
Events Thunderstorm    
Averages and records for this station are not official NWS values.
T = Trace of Precipitation, MM = Missing Value Source: NWS Daily Summary

Daily Weather History Graph

Daily Weather History Graph

Search for Another Location

Airport:

Trip Planner

Search our weather history database for the weather conditions in past years. The results will help you decide how hot, cold, wet, or windy it might be!

Date:

Astronomy

Aug. 14, 2013 Rise Set
Actual Time 5:49 AM MST 7:13 PM MST
Civil Twilight 5:23 AM MST 7:39 PM MST
Nautical Twilight 4:52 AM MST 8:10 PM MST
Astronomical Twilight 4:19 AM MST 8:42 PM MST
Moon 1:25 PM MST (8/14) No Moon Set
Length of Visible Light 14h 15m
Length of Day
13h 23m
First Quarter, 54% of the Moon is Illuminated
Aug 14
First Quarter
Aug 20
Full
Aug 28
Last Quarter
Sep 5
New
Sep 12
First Quarter

Hourly Weather History & Observations

Time (MST) Temp. Heat Index Dew Point Humidity Pressure Visibility Wind Dir Wind Speed Gust Speed Precip Events Conditions
12:15 AM 84.2 °F - 37.4 °F 19% 29.87 in 10.0 mi Calm Calm - N/A   Clear
12:35 AM 84.2 °F - 37.4 °F 19% 29.87 in 10.0 mi Calm Calm - N/A   Clear
12:55 AM 82.4 °F - 37.4 °F 20% 29.87 in 10.0 mi Calm Calm - N/A   Clear
1:15 AM 80.6 °F - 39.2 °F 23% 29.87 in 10.0 mi WNW 4.6 mph - N/A   Clear
1:35 AM 78.8 °F - 39.2 °F 24% 29.87 in 10.0 mi ENE 3.5 mph - N/A   Clear
1:55 AM 82.4 °F - 39.2 °F 21% 29.88 in 10.0 mi WSW 4.6 mph - N/A   Clear
2:15 AM 82.4 °F - 39.2 °F 21% 29.88 in 10.0 mi Calm Calm - N/A   Clear
2:35 AM 80.6 °F - 39.2 °F 23% 29.88 in 10.0 mi NE 4.6 mph - N/A   Clear
2:55 AM 80.6 °F - 39.2 °F 23% 29.88 in 10.0 mi Calm Calm - N/A   Clear
3:15 AM 78.8 °F - 39.2 °F 24% 29.88 in 10.0 mi Calm Calm - N/A   Clear
3:35 AM 80.6 °F - 39.2 °F 23% 29.88 in 10.0 mi NE 3.5 mph - N/A   Clear
3:55 AM 80.6 °F - 39.2 °F 23% 29.89 in 10.0 mi Calm Calm - N/A   Clear
4:15 AM 80.6 °F - 41.0 °F 24% 29.89 in 10.0 mi West 4.6 mph - N/A   Clear
4:35 AM 80.6 °F 80.3 °F 53.6 °F 39% 29.90 in 8.0 mi South 4.6 mph - 0.01 in Thunderstorm Thunderstorm
4:55 AM 80.6 °F 80.5 °F 55.4 °F 42% 29.91 in 10.0 mi Calm Calm - 0.01 in Thunderstorm Thunderstorm
5:15 AM 80.6 °F 81.5 °F 60.8 °F 51% 29.91 in 10.0 mi East 5.8 mph - N/A   Clear
5:35 AM 78.8 °F - 62.6 °F 57% 29.91 in 10.0 mi NW 3.5 mph - N/A   Mostly Cloudy
5:55 AM 78.8 °F - 62.6 °F 57% 29.91 in 10.0 mi NW 5.8 mph - N/A   Scattered Clouds
6:15 AM 80.6 °F 80.8 °F 57.2 °F 45% 29.91 in 10.0 mi Calm Calm - N/A   Partly Cloudy
6:35 AM 78.8 °F - 60.8 °F 54% 29.92 in 10.0 mi South 5.8 mph - N/A   Partly Cloudy
6:55 AM 78.8 °F - 62.6 °F 57% 29.93 in 10.0 mi South 3.5 mph - N/A   Clear
7:15 AM 80.6 °F 80.8 °F 57.2 °F 45% 29.94 in 10.0 mi SSW 4.6 mph - N/A   Clear
7:35 AM 80.6 °F 80.8 °F 57.2 °F 45% 29.94 in 10.0 mi Calm Calm - N/A   Clear
7:55 AM 82.4 °F 81.7 °F 55.4 °F 39% 29.94 in 10.0 mi Calm Calm - N/A   Clear
8:15 AM 84.2 °F 83.0 °F 55.4 °F 37% 29.95 in 10.0 mi Calm Calm - N/A   Clear
8:35 AM 86.0 °F 84.9 °F 57.2 °F 37% 29.95 in 10.0 mi Calm Calm - N/A   Clear
8:55 AM 87.8 °F 86.5 °F 57.2 °F 35% 29.95 in 10.0 mi Calm Calm - N/A   Clear
9:15 AM 89.6 °F 88.1 °F 57.2 °F 33% 29.95 in 10.0 mi Calm Calm - N/A   Clear
9:35 AM 89.6 °F 88.1 °F 57.2 °F 33% 29.95 in 10.0 mi SE 4.6 mph - N/A   Clear
9:55 AM 91.4 °F 89.9 °F 57.2 °F 31% 29.95 in 10.0 mi SE 5.8 mph - N/A   Clear
10:15 AM 91.4 °F 89.9 °F 57.2 °F 31% 29.95 in 10.0 mi SE 5.8 mph - N/A   Clear
10:35 AM 93.2 °F 91.3 °F 55.4 °F 28% 29.95 in 10.0 mi SE 4.6 mph - N/A   Clear
10:55 AM 93.2 °F 91.3 °F 55.4 °F 28% 29.95 in 10.0 mi ESE 4.6 mph - N/A   Clear
11:15 AM 93.2 °F 91.3 °F 55.4 °F 28% 29.94 in 10.0 mi ESE 3.5 mph - N/A   Clear
11:35 AM 96.8 °F 94.4 °F 53.6 °F 23% 29.93 in 10.0 mi Calm Calm - N/A   Clear
11:55 AM 96.8 °F 94.4 °F 53.6 °F 23% 29.93 in 10.0 mi ESE 5.8 mph - N/A   Clear
12:55 PM 100.4 °F - 51.8 °F 20% 29.91 in 10.0 mi South 5.8 mph - N/A   Clear
1:15 PM 100.4 °F - 44.6 °F 15% 29.90 in 10.0 mi NW 3.5 mph - N/A   Clear
1:35 PM 100.4 °F - 44.6 °F 15% 29.89 in 10.0 mi WNW 5.8 mph - N/A   Clear
1:55 PM 100.4 °F - 46.4 °F 16% 29.88 in 10.0 mi NW 6.9 mph - N/A   Partly Cloudy
2:15 PM 102.2 °F - 44.6 °F 14% 29.87 in 10.0 mi WNW 8.1 mph - N/A   Clear
2:35 PM 102.2 °F - 42.8 °F 13% 29.86 in 10.0 mi NNW 9.2 mph - N/A   Clear
2:55 PM 102.2 °F - 42.8 °F 13% 29.86 in 10.0 mi NW 6.9 mph - N/A   Clear
3:15 PM 104.0 °F - 44.6 °F 13% 29.84 in 10.0 mi North 5.8 mph - N/A   Clear
3:35 PM 102.2 °F - 42.8 °F 13% 29.84 in 10.0 mi WNW 3.5 mph - N/A   Clear
3:55 PM 104.0 °F - 44.6 °F 13% 29.83 in 10.0 mi NW 4.6 mph - N/A   Clear
4:15 PM 105.8 °F - 44.6 °F 13% 29.82 in 10.0 mi NNW 6.9 mph - N/A   Clear
4:35 PM 104.0 °F - 44.6 °F 13% 29.82 in 10.0 mi NW 9.2 mph - N/A   Clear
4:55 PM 104.0 °F - 44.6 °F 13% 29.81 in 10.0 mi NW 4.6 mph - N/A   Clear
5:15 PM 104.0 °F - 44.6 °F 13% 29.81 in 10.0 mi NW 6.9 mph - N/A   Clear
5:35 PM 104.0 °F - 44.6 °F 13% 29.80 in 10.0 mi NW 6.9 mph - N/A   Clear
5:55 PM 104.0 °F - 46.4 °F 14% 29.80 in 10.0 mi NW 5.8 mph - N/A   Clear
6:15 PM 102.2 °F - 44.6 °F 14% 29.80 in 10.0 mi NW 8.1 mph - N/A   Clear
6:35 PM 102.2 °F - 44.6 °F 14% 29.80 in 10.0 mi NW 9.2 mph - N/A   Clear
6:55 PM 102.2 °F - 44.6 °F 14% 29.80 in 10.0 mi NW 5.8 mph - N/A   Clear
7:15 PM 102.2 °F - 44.6 °F 14% 29.81 in 10.0 mi NW 5.8 mph - N/A   Clear
7:35 PM 100.4 °F - 44.6 °F 15% 29.82 in 10.0 mi WNW 4.6 mph - N/A   Clear
7:55 PM 98.6 °F - 44.6 °F 16% 29.82 in 10.0 mi Calm Calm - N/A   Clear
8:15 PM 96.8 °F - 44.6 °F 17% 29.83 in 10.0 mi West 3.5 mph - N/A   Clear
8:35 PM 95.0 °F - 44.6 °F 18% 29.84 in 10.0 mi WSW 4.6 mph - N/A   Clear
8:55 PM 95.0 °F - 44.6 °F 18% 29.84 in 10.0 mi WNW 3.5 mph - N/A   Clear
9:15 PM 93.2 °F - 44.6 °F 19% 29.85 in 10.0 mi West 6.9 mph - N/A   Clear
9:35 PM 93.2 °F - 44.6 °F 19% 29.85 in 10.0 mi West 5.8 mph - N/A   Clear
9:55 PM 91.4 °F - 44.6 °F 20% 29.86 in 10.0 mi West 5.8 mph - N/A   Clear
10:15 PM 91.4 °F - 46.4 °F 21% 29.86 in 10.0 mi West 5.8 mph - N/A   Clear
10:35 PM 93.2 °F - 51.8 °F 24% 29.89 in 10.0 mi SSE 12.7 mph 19.6 mph N/A   Clear
10:55 PM 93.2 °F 92.6 °F 59.0 °F 32% 29.89 in 10.0 mi SSE 12.7 mph 19.6 mph N/A   Clear
11:15 PM 91.4 °F 90.7 °F 59.0 °F 34% 29.90 in 10.0 mi SE 15.0 mph 21.9 mph N/A   Clear
11:35 PM 91.4 °F 90.7 °F 59.0 °F 34% 29.90 in 10.0 mi SE 17.3 mph 24.2 mph N/A   Clear
11:55 PM 91.4 °F 90.7 °F 59.0 °F 34% 29.91 in 10.0 mi SE 15.0 mph 24.2 mph N/A   Clear